Location: Columbia
(38.9520°N, 92.3340°W)
Time: 17:11:06
(UTC-05:00)

Iridium 15 - Visible Passes

Search period start: 16 April 2014 00:00
Search period end: 26 April 2014 00:00
Orbit: 776 x 779 km, 86.4° (Epoch: 16 April)

Date Brightness Start Highest point End Pass type
(mag) Time Alt. Az. Time Alt. Az. Time Alt. Az.
16 Apr 7.1 20:19:12 10° SE 20:23:17 24° E 20:27:23 10° NNE visible
16 Apr 7.5 21:59:01 10° SSW 22:03:45 35° W 22:08:32 10° NNW visible
17 Apr 6.3 21:24:58 10° S 21:30:08 67° W 21:35:19 10° N visible
18 Apr 6.0 20:51:29 10° S 20:56:37 65° E 21:01:47 10° N visible
18 Apr 8.8 22:35:21 10° WSW 22:37:49 13° WNW 22:40:18 10° NW visible
19 Apr 6.7 20:18:35 10° SSE 20:23:14 34° E 20:27:54 10° NNE visible
19 Apr 8.2 21:59:46 10° SW 22:03:59 25° W 22:08:13 10° NNW visible
20 Apr 7.1 21:25:18 10° SSW 21:30:16 45° W 21:35:16 10° N visible
21 Apr 6.1 20:51:29 10° S 20:56:41 86° W 21:01:55 10° N visible
22 Apr 6.2 20:18:14 10° SSE 20:23:14 50° E 20:28:15 10° NNE visible
22 Apr 8.7 22:00:53 10° WSW 22:04:15 17° WNW 22:07:37 10° NW visible
23 Apr 7.9 21:25:52 10° SW 21:30:27 31° W 21:35:04 10° NNW visible
24 Apr 6.7 20:51:41 10° SSW 20:56:48 59° W 21:01:57 10° N visible
25 Apr 6.0 20:18:06 10° S 20:23:16 75° E 20:28:28 10° N visible
25 Apr 9.1 22:02:49 10° W 22:04:34 12° WNW 22:06:19 10° NW visible
